Total_Precipitation_Accumulation
1.71 1.71 2.44 3.40 3.87 3.39 3.05 2.46 1.98 1.67 1.38 1.10 0.87 0.82 1.24 1.67 2.17 2.49 2.36 2.20 1.69 1.42 1.52 2.18 2.74 2.46 2.14 1.98 2.03 2.16 2.07 2.04 1.90 1.83 1.66 1.52 1.28 1.17 1.09 0.99 0.92 0.95 0.88 0.79 0.86 1.04 1.02 1.05 1.08
1.61 2.36 3.27 4.16 3.76 3.00 2.87 2.36 2.00 1.56 1.06 0.85 0.68 0.68 0.89 0.90 0.88 1.31 2.27 2.37 1.63 1.32 1.39 1.91 2.77 2.44 2.30 2.20 2.22 2.16 2.10 2.14 1.93 1.77 1.64 1.49 1.35 1.30 1.25 1.33 1.33 1.18 0.98 0.87 0.88 1.07 1.03 0.98 1.06
1.77 3.00 4.14 4.10 2.98 2.62 2.83 2.31 1.69 1.20 0.82 0.78 0.74 0.65 0.80 1.05 1.10 1.71 2.39 2.04 1.53 1.29 1.41 2.19 2.83 2.50 2.35 2.32 2.26 2.11 2.17 2.24 2.04 1.78 1.58 1.40 1.41 1.59 1.62 1.57 1.46 1.23 1.01 0.90 0.89 1.01 1.04 0.97 0.97
2.19 3.42 3.60 3.12 2.73 2.33 2.13 1.88 1.42 1.36 1.01 0.72 0.69 0.74 0.71 1.04 1.24 1.68 1.87 1.65 1.50 1.50 1.52 2.22 2.82 2.59 2.40 2.32 2.23 2.15 2.16 2.25 2.18 1.88 1.61 1.46 1.47 1.53 1.55 1.51 1.41 1.19 1.01 0.88 0.94 1.04 1.02 1.02 1.01
2.65 3.29 3.26 2.81 2.60 2.25 1.67 1.49 1.32 1.48 1.33 0.88 0.71 0.92 1.09 1.42 1.55 1.61 1.66 1.67 1.40 1.43 1.50 1.94 2.55 2.47 2.28 2.20 2.17 2.25 2.22 2.18 2.21 1.98 1.72 1.62 1.55 1.49 1.53 1.47 1.38 1.12 0.97 0.89 1.00 1.06 1.03 1.01 1.06
2.92 2.95 3.16 2.99 2.78 2.38 1.86 1.54 1.40 1.41 1.24 0.92 0.85 1.04 1.38 1.88 1.90 1.83 1.60 1.62 1.55 1.42 1.40 1.64 2.17 2.35 2.23 2.22 2.14 2.18 2.22 2.19 2.11 1.80 1.66 1.56 1.55 1.54 1.49 1.44 1.39 1.16 1.11 1.06 1.00 0.97 1.01 1.04 1.05
2.80 2.81 2.77 2.54 2.73 2.87 2.23 1.51 1.52 1.40 1.33 1.10 0.85 1.16 1.45 2.02 1.83 1.84 1.75 1.70 1.76 1.64 1.58 1.63 1.89 2.10 2.40 2.43 2.27 2.25 2.25 2.21 2.05 1.71 1.59 1.52 1.45 1.35 1.32 1.32 1.25 1.18 1.19 1.08 0.95 0.90 0.91 0.98 1.02
2.23 2.30 2.22 2.28 2.62 2.77 2.00 1.26 1.12 1.31 1.33 0.92 0.79 1.11 1.46 1.75 1.67 1.80 1.91 1.90 1.78 1.72 1.67 1.58 1.69 1.78 1.97 2.15 2.36 2.41 2.33 2.23 2.09 1.77 1.61 1.56 1.43 1.31 1.22 1.12 1.14 1.13 1.17 1.20 1.07 1.00 1.00 1.01 1.08
2.06 2.38 2.46 2.62 2.49 2.29 1.57 1.27 1.07 0.97 1.06 0.90 0.79 0.90 1.27 1.34 1.45 1.76 1.98 1.97 1.72 1.56 1.46 1.41 1.47 1.60 1.78 1.99 2.19 2.38 2.29 2.18 2.04 1.79 1.68 1.62 1.38 1.18 1.10 1.03 1.23 1.17 1.17 1.23 1.23 1.25 1.22 1.11 1.06
2.15 2.51 2.50 2.15 1.66 1.56 1.34 1.18 1.07 1.01 1.13 1.09 0.97 1.02 1.35 1.50 1.57 1.72 1.76 1.68 1.51 1.53 1.37 1.20 1.24 1.39 1.52 1.62 2.06 2.11 1.83 1.73 1.60 1.75 1.63 1.47 1.42 1.25 0.89 0.97 1.24 1.36 1.36 1.28 1.25 1.33 1.17 0.90 0.78
1.72 1.93 1.68 1.64 1.29 1.11 1.12 1.06 0.96 1.13 1.30 1.04 1.03 1.11 1.44 1.64 1.58 1.62 1.58 1.46 1.39 1.35 1.27 1.16 1.13 1.11 1.12 1.26 1.51 1.69 1.70 1.70 1.56 1.50 1.43 1.40 1.27 1.06 0.88 0.95 0.98 1.02 1.04 0.96 0.99 0.95 0.80 0.72 0.77
1.52 1.42 1.20 1.31 1.13 1.12 1.14 1.02 0.97 1.03 1.11 0.81 0.87 1.08 1.42 1.60 1.58 1.51 1.40 1.34 1.25 1.15 1.15 1.09 0.99 0.94 0.89 0.96 1.02 1.09 1.27 1.40 1.41 1.23 1.10 1.12 1.16 1.06 0.90 0.91 0.92 0.93 0.94 1.04 1.05 1.02 0.93 0.89 0.87
1.68 1.47 1.24 1.17 1.13 1.09 1.05 1.00 0.94 0.91 0.84 0.81 0.88 1.18 1.48 1.70 1.77 1.72 1.42 1.18 1.08 1.09 1.09 1.01 0.88 0.86 0.84 0.88 0.87 0.81 1.02 1.21 1.30 1.27 1.10 1.01 1.03 1.04 0.99 0.86 0.90 0.85 0.87 0.95 0.99 1.00 1.05 1.12 1.07
1.52 1.38 1.33 1.30 1.16 1.02 1.04 0.99 0.92 1.05 0.91 0.90 0.91 1.07 1.23 1.41 1.46 1.36 1.31 1.07 0.92 0.92 1.03 0.98 0.91 0.95 0.89 0.82 0.81 0.79 0.87 0.99 1.02 1.16 1.15 1.06 0.99 0.96 0.99 0.96 0.99 0.98 0.96 0.95 0.94 0.92 1.06 1.11 1.13
1.18 1.40 1.43 1.35 1.20 1.07 0.99 1.20 1.09 1.13 1.03 1.03 1.01 1.01 1.11 1.21 1.27 1.14 1.03 0.88 0.86 0.85 0.87 0.83 0.83 0.90 0.89 0.86 0.84 0.83 0.94 0.97 0.99 1.03 1.00 1.05 0.96 0.92 0.96 0.99 1.01 1.02 1.02 0.99 1.00 1.03 1.12 1.14 1.23
1.28 1.58 1.81 1.47 1.26 1.21 1.25 1.46 1.28 1.24 1.15 1.06 0.99 1.00 1.02 1.11 1.22 1.19 1.07 0.85 0.82 0.78 0.77 0.77 0.70 0.79 0.91 0.98 0.99 1.05 1.09 1.08 1.12 1.04 0.98 0.97 0.93 0.91 1.01 1.03 1.05 1.11 1.03 1.01 1.11 1.18 1.27 1.30 1.36
1.56 1.59 1.54 1.47 1.22 1.20 1.26 1.31 1.21 1.27 1.21 1.04 0.91 0.88 0.85 0.92 0.97 0.98 0.99 0.89 0.82 0.78 0.79 0.81 0.77 0.82 0.93 0.99 1.11 1.19 1.24 1.30 1.40 1.32 1.26 1.20 1.10 1.09 1.20 1.24 1.25 1.26 1.26 1.20 1.11 1.16 1.29 1.43 1.44
1.45 1.16 1.11 1.19 1.12 1.04 1.10 1.04 1.06 1.18 1.15 1.03 0.87 0.79 0.74 0.77 0.78 0.77 0.82 0.85 0.86 0.83 0.83 0.88 0.95 0.98 1.11 1.27 1.46 1.64 1.72 1.85 2.00 1.92 1.78 1.58 1.39 1.34 1.50 1.50 1.40 1.45 1.56 1.62 1.43 1.48 1.42 1.37 1.47
0.88 0.86 0.91 0.86 0.77 0.85 0.86 0.88 0.91 0.90 0.94 0.87 0.71 0.67 0.70 0.69 0.71 0.69 0.73 0.78 0.81 0.82 0.81 0.81 0.87 0.98 1.09 1.31 1.60 2.05 2.27 2.36 2.29 2.27 2.16 1.91 1.69 1.69 1.89 1.92 1.84 1.82 1.84 1.81 1.73 1.89 1.83 1.55 1.46
0.73 0.81 0.83 0.78 0.67 0.70 0.68 0.71 0.70 0.68 0.63 0.60 0.54 0.51 0.56 0.59 0.68 0.65 0.63 0.64 0.69 0.69 0.72 0.86 0.90 0.95 1.06 1.32 1.60 1.94 2.29 2.34 2.32 2.29 2.22 2.09 1.94 1.91 1.96 2.21 2.30 2.24 2.41 2.41 2.18 2.31 2.34 1.95 1.70
0.70 0.76 0.76 0.81 0.76 0.68 0.65 0.71 0.70 0.62 0.52 0.46 0.43 0.42 0.45 0.46 0.55 0.60 0.60 0.58 0.62 0.61 0.58 0.69 0.83 1.01 1.28 1.58 1.85 2.02 2.26 2.30 2.33 2.28 2.26 2.27 2.20 2.08 2.14 2.27 2.43 2.42 2.50 2.66 2.72 2.62 2.73 2.54 2.12
0.74 0.53 0.48 0.57 0.83 0.89 0.67 0.83 0.68 0.56 0.58 0.51 0.45 0.41 0.42 0.45 0.47 0.48 0.54 0.55 0.53 0.50 0.48 0.56 0.69 0.97 1.38 1.73 1.95 2.16 2.51 2.56 2.41 2.40 2.36 2.34 2.34 2.31 2.40 2.43 2.52 2.53 2.54 2.65 2.76 2.70 2.85 2.97 2.56
0.54 0.44 0.44 0.51 0.69 0.75 0.57 0.60 0.61 0.54 0.59 0.57 0.51 0.48 0.44 0.41 0.39 0.41 0.44 0.45 0.46 0.50 0.52 0.57 0.74 1.03 1.38 1.63 1.88 2.20 2.39 2.49 2.54 2.45 2.42 2.39 2.42 2.43 2.48 2.55 2.70 2.69 2.67 2.62 2.82 2.88 2.97 2.90 2.82
0.38 0.49 0.55 0.57 0.68 0.73 0.41 0.48 0.60 0.51 0.43 0.44 0.47 0.46 0.41 0.38 0.37 0.42 0.47 0.47 0.50 0.53 0.60 0.71 0.89 1.07 1.34 1.58 1.85 2.02 2.19 2.32 2.40 2.45 2.38 2.35 2.40 2.48 2.35 2.29 2.47 2.54 2.58 2.55 2.71 2.86 2.99 2.95 2.97
0.40 0.71 0.96 0.95 0.95 0.74 0.35 0.47 0.60 0.43 0.32 0.34 0.38 0.41 0.40 0.42 0.45 0.52 0.57 0.65 0.74 0.76 0.80 0.90 1.03 1.21 1.35 1.46 1.62 1.74 1.86 1.99 1.98 2.12 2.17 2.29 2.29 2.31 2.32 2.22 2.24 2.30 2.27 2.28 2.37 2.42 2.47 2.61 2.81
0.36 0.56 0.91 0.97 0.83 0.64 0.49 0.68 0.67 0.43 0.36 0.37 0.37 0.43 0.45 0.53 0.61 0.75 0.86 0.98 1.06 1.05 1.07 1.14 1.21 1.27 1.30 1.35 1.43 1.53 1.62 1.69 1.69 1.68 1.68 1.85 2.00 2.02 2.08 2.07 2.03 2.10 2.17 2.15 2.24 2.26 2.25 2.27 2.33
0.35 0.43 0.48 0.62 0.54 0.57 0.58 0.70 0.64 0.46 0.43 0.44 0.46 0.51 0.59 0.77 0.87 1.01 1.15 1.23 1.22 1.19 1.16 1.20 1.24 1.24 1.25 1.28 1.31 1.26 1.31 1.39 1.44 1.42 1.49 1.51 1.56 1.57 1.63 1.69 1.78 1.91 2.00 2.05 2.18 2.26 2.24 2.16 2.12
0.32 0.44 0.59 0.87 0.97 0.85 0.70 0.80 0.80 0.62 0.51 0.48 0.56 0.67 0.84 1.09 1.24 1.39 1.56 1.51 1.43 1.41 1.46 1.36 1.27 1.21 1.18 1.20 1.28 1.22 1.25 1.29 1.27 1.21 1.27 1.23 1.21 1.22 1.27 1.37 1.56 1.82 1.95 1.99 2.08 2.16 2.21 2.21 2.14
0.35 0.48 0.64 0.93 1.02 1.18 1.22 1.25 0.96 0.76 0.70 0.79 0.92 1.03 1.22 1.47 1.63 1.74 1.81 1.79 1.59 1.45 1.44 1.38 1.26 1.14 1.05 1.06 1.18 1.23 1.21 1.23 1.22 1.17 1.11 1.07 1.05 1.09 1.17 1.23 1.40 1.57 1.75 1.95 2.11 2.12 2.10 2.11 2.08
0.44 0.62 0.83 1.29 1.27 1.13 1.33 1.45 1.05 0.86 0.86 0.89 0.97 1.15 1.35 1.46 1.54 1.57 1.56 1.61 1.52 1.42 1.32 1.28 1.19 1.02 0.98 1.05 1.10 1.18 1.14 1.11 1.15 1.11 1.16 1.05 0.96 0.95 1.00 1.17 1.37 1.50 1.59 1.62 1.72 1.78 1.81 1.85 1.92